User: anonymous   Login
Location: Bakov nad Jizerou
(50.4784°N, 14.9394°E)
Time: 07:27:57
(UTC+00:00)
Language:

deb Kosmos-1375 - Orbit

View from above orbital plane
View from above orbital plane
View from above satellite
View from above satellite

Ground track
Ground track

The orbit data is extracted from the following two-line orbital elements,

1 16386U 82055AA  22028.61610031 -.00000079  00000-0  94895-6 0  9994
2 16386  65.8382 338.3017 0036671  38.7806 135.7348 13.69616638983064
Epoch (UTC): 28 January 2022 14:47:11
Eccentricity: 0.0036671
inclination: 65.8382°
perigee height: 974 km
apogee height: 1028 km
right ascension of ascending node: 338.3017°
argument of perigee: 38.7806°
revolutions per day: 13.69616638
mean anomaly at epoch: 135.7348°
orbit number at epoch: 98306

The dashed part of the orbit path shows where the satellite is in the earth's shadow,  

DLR